Location: Newark
(35.2672°N, 80.7344°W)
Time: 00:00:35
(UTC+00:00)

Vanguard 2 Rocket - Pass Details

Date: 27 January 2020
Orbit: 554 x 3327 km, 32.9° (Epoch: 20 February)

Event Time Altitude Azimuth Distance (km) Brightness Sun altitude
Rises 16:19:43 0° 269° (W) 4,221 10.1 33.3°
Reaches altitude 10° 16:22:56 10° 254° (WSW) 3,622 10.0 33.6°
Maximum altitude 16:30:06 23° 207° (SSW) 3,465 10.8 34.1°
Drops below altitude 10° 16:40:22 10° 163° (SSE) 5,344 12.2 34.7°
Sets 16:46:43 0° 151° (SSE) 6,792 12.3 35.0°
